Khon Kaen, Thailand

1:17 AM +07 on November 24, 2017 (GMT +0700)
Khon Kaen

Weather History for VTUK - August, 2013

Change the Weather History Date:

Saturday, August 10, 2013

  Actual Average Record
Temperature  
Mean Temperature 83 °F -  
Max Temperature 91 °F 90 °F - ()
Min Temperature 75 °F 76 °F - ()
Cooling Degree Days 18    
Growing Degree Days 33 (Base 50)    
Moisture  
Dew Point 77 °F    
Average Humidity 87    
Maximum Humidity 100    
Minimum Humidity 63    
Precipitation  
Precipitation 1.38 in 0.28 in - ()
Sea Level Pressure  
Sea Level Pressure 29.77 in    
Wind  
Wind Speed 2 mph ()    
Max Wind Speed 6 mph    
Max Gust Speed -    
Visibility 5.7 miles    
Events Rain , Thunderstorm    
T = Trace of Precipitation, MM = Missing Value Source: Averaged Metar Reports

Daily Weather History Graph

Daily Weather History Graph

Search for Another Location

Airport or City:

Trip Planner

Search our weather history database for the weather conditions in past years. The results will help you decide how hot, cold, wet, or windy it might be!

Date:

Astronomy

Aug. 10, 2013 Rise Set
Actual Time 5:51 AM +07 6:36 PM +07
Civil Twilight 5:29 AM +07 6:58 PM +07
Nautical Twilight 5:02 AM +07 7:25 PM +07
Astronomical Twilight 4:35 AM +07 7:52 PM +07
Moon 8:26 AM +07 (8/10) 8:43 PM +07 (8/10)
Length of Visible Light 13h 29m
Length of Day
12h 44m
Waxing Crescent, 11% of the Moon is Illuminated
Aug 10
Waxing Crescent
Aug 14
First Quarter
Aug 21
Full
Aug 28
Last Quarter
Sep 5
New

Hourly Weather History & Observations

Time (+07) Temp. Heat Index Dew Point Humidity Pressure Visibility Wind Dir Wind Speed Gust Speed Precip Events Conditions
1:00 AM 76 °F - 74 °F 93% 29.79 in 6 mi Calm Calm - - Rain Light Rain
1:00 AM 75.2 °F - 75.2 °F 100% 29.80 in 6.2 mi Calm Calm - N/A Rain Light Rain
3:00 AM 75.2 °F - 75.2 °F 100% 29.77 in 6.2 mi Calm Calm - N/A   Mostly Cloudy
4:00 AM 75.2 °F - 75.2 °F 100% 29.77 in 6.2 mi Variable 2.3 mph - N/A   Overcast
5:00 AM 75.2 °F - 75.2 °F 100% 29.77 in 6.2 mi Variable 2.3 mph - N/A   Mostly Cloudy
6:00 AM 75.2 °F - 75.2 °F 100% 29.77 in 6.2 mi Calm Calm - N/A   Mostly Cloudy
7:00 AM 76 °F - 75 °F 95% 29.78 in 6 mi Calm Calm - -   Partly Cloudy
7:00 AM 75.2 °F - 75.2 °F 100% 29.80 in 6.2 mi Calm Calm - N/A   Mostly Cloudy
8:00 AM 77.0 °F - 77.0 °F 100% 29.80 in 6.2 mi Calm Calm - N/A   Mostly Cloudy
9:00 AM 80.6 °F 87.1 °F 77.0 °F 89% 29.83 in 6.2 mi East 3.5 mph - N/A   Mostly Cloudy
10:00 AM 80.6 °F 87.1 °F 77.0 °F 89% 29.83 in 6.2 mi South 3.5 mph - N/A   Mostly Cloudy
11:00 AM 84.2 °F 94.1 °F 77.0 °F 79% 29.83 in 6.2 mi Variable 4.6 mph - N/A   Mostly Cloudy
12:00 PM 86.0 °F 99.3 °F 78.8 °F 79% 29.80 in 6.2 mi East 5.8 mph - N/A   Mostly Cloudy
1:00 PM 85 °F - 75 °F 64% 29.76 in 6 mi East 4.6 mph - -   Partly Cloudy
1:00 PM 86.0 °F 99.3 °F 78.8 °F 79% 29.77 in 6.2 mi East 4.6 mph - N/A   Mostly Cloudy
2:00 PM 89.6 °F 102.2 °F 77.0 °F 66% 29.74 in 6.2 mi Variable 3.5 mph - N/A   Mostly Cloudy
3:00 PM 87.8 °F 102.5 °F 78.8 °F 75% 29.71 in 6.2 mi Variable 3.5 mph - N/A   Partly Cloudy
4:00 PM 91.4 °F 105.1 °F 77.0 °F 63% 29.68 in 6.2 mi Variable 3.5 mph - N/A   Mostly Cloudy
5:00 PM 89.6 °F 102.2 °F 77.0 °F 66% 29.68 in 6.2 mi WNW 4.6 mph - N/A   Mostly Cloudy
6:00 PM 87.8 °F 102.5 °F 78.8 °F 75% 29.68 in 6.2 mi East 4.6 mph - N/A   Mostly Cloudy
7:00 PM 81 °F - 72 °F 69% 29.71 in 1 mi NNE 2.3 mph - - Rain , Thunderstorm Thunderstorms and Rain
7:00 PM 82.4 °F 90.9 °F 77.0 °F 84% 29.74 in 0.3 mi SSW 4.6 mph - N/A Rain Heavy Rain
8:00 PM 77.0 °F - 75.2 °F 94% 29.77 in 5.6 mi East 3.5 mph - N/A Rain , Thunderstorm Thunderstorms and Rain
9:00 PM 78.8 °F - 78.8 °F 100% 29.77 in 6.2 mi North 3.5 mph - N/A   Mostly Cloudy
10:00 PM 78.8 °F - 78.8 °F 100% 29.80 in 6.2 mi NE 5.8 mph - N/A   Mostly Cloudy
11:00 PM 78.8 °F - 78.8 °F 100% 29.80 in 6.2 mi Variable 2.3 mph - N/A   Mostly Cloudy